Weather in Zhdani

Russia / Pskov Oblast     58°24′03″N   28°57′17″E
temp.,
°C
wind,
m/s
gust,
m/s
humid.,
%
clouds,
%
prec.,
mm/h
press.,
hPa
HPBL,
m
6 may, thu
thu600:00+5se3899100 0.7 999266
03:00+4se2399100 1.1 99898
06:00+5sse1399100 1.1 99697
09:00+6w1294100 3.0 994163
12:00+7w3791100 1.1 993621
15:00+10wsw5773100 1.8 9931249
18:00+8sw61085100 1.6 9941006
21:00+5sw51189100 2.0 9961205
7 may, fri
fri700:00+4sw51197100 0.7 9971010
03:00+4sw61297100 1.1 9981084
06:00+3sw51197100 0.5 999963
09:00+4ssw51197100 0.6 1001946
12:00+5sw598883 0.1 1003916
15:00+8sw596998 0.6 10031297
18:00+8sw4768100 0.3 10041086
21:00+4s1188100 0.4 100410
8 may, sat
sat800:00+4ese1189100 0.0 100310
03:00+4ne2288100 0.1 100241
06:00+4n2497100 1.3 1001183
09:00+4nnw3795100 2.8 1001698
12:00+5nnw4796100 2.2 1002723
15:00+4nw4996100 4.2 1003774
18:00+5nw5985100 0.6 1005986
21:00+4wnw41087100 0.6 1006734
9 may, sun
sun900:00+3w4138999 0.0 1008484
03:00+2w514860 0.0 1011525
06:00+1w413863 0.0 1014484
09:00+6w48555 0.0 1016791
12:00+11wsw57445 0.0 10171800
15:00+12sw5735100 0.0 10182053
18:00+10sw376098 0.2 10181329
21:00+7sw3107672 0.4 1020328
10 may, mon
mon1000:00+4s398899 0.0 1020164
03:00+6s41284100 0.1 1020538
06:00+7ssw51290100 0.7 1019605
09:00+9ssw41185100 0.8 1020453
12:00+16sw586197 0.0 1020864
15:00+19sw6850100 0.0 10211516
18:00+18ssw4960100 0.0 10211180
21:00+15ssw41372100 0.0 1021577